Location: Haddou Ou Naseur
(32.7072°N, 5.2487°W)
Time: 06:57:40
(UTC+00:00)

Daily predictions for brighter satellites

Satellite Brightness Start Highest point End
(mag) Time Altitude Azimuth Time Altitude Azimuth Time Altitude Azimuth
Envisat 3.1 17:33:33 10° SSE 17:38:37 87° WSW 17:43:43 10° NNW
SMAP 3.2 17:34:33 10° SSE 17:39:03 52° ENE 17:43:35 10° N
CZ-4B R/B 3.2 17:34:59 10° SSE 17:40:15 58° ENE 17:45:28 10° N
Cosmos 2237 Rocket 2.5 17:39:03 10° SSW 17:44:37 70° WNW 17:50:15 10° NNE
H-2A R/B 2.9 17:41:10 10° N 17:45:15 53° WNW 17:49:24 10° SSW
Cosmos 1939 Rocket 4.2 17:45:30 10° ESE 17:48:09 18° ENE 17:50:50 10° NNE
SKYMED 2 4.4 17:44:29 10° NE 17:48:18 29° E 17:52:04 10° SSE
X-37B 2.9 17:47:24 10° SSE 17:48:50 13° SE 17:50:18 10° ESE
Cosmos 2327 Rocket 4.5 17:48:37 10° N 17:54:48 85° E 18:01:03 10° S
Cosmos 1633 Rocket 4.4 17:52:49 10° NNE 17:55:55 19° ENE 17:59:01 10° ESE
CORIOLIS 4.1 17:52:12 10° SSE 17:57:32 70° ENE 18:02:56 10° N
USA 281 4.2 17:54:58 10° ESE 17:59:49 23° NE 18:04:41 10° N
Cosmos 2181 Rocket 4.3 17:54:37 10° SSE 18:00:43 47° E 18:06:48 10° NNE
YAOGAN 6 4.2 18:02:19 10° S 18:05:47 39° W 18:09:14 10° NNW
Abrixas rocket 3.3 18:05:36 10° NNW 18:07:45 20° NNE 18:08:24 18° NE
Meteor 2-12 Rocket 4.4 18:04:55 10° N 18:11:01 64° E 18:17:03 10° SSE
Cosmos 389 Rocket 3.2 18:13:47 10° SSW 18:17:09 53° W 18:20:30 10° N
Orbus 7S 4.1 18:18:09 10° WSW 18:20:27 27° S 18:22:18 14° SE
Cosmos 1933 3.2 18:19:34 10° S 18:23:35 82° E 18:27:37 10° N
Cosmos 1689 Rocket 1.9 18:25:21 20° NNE 18:27:11 65° E 18:30:05 10° S
Okean-O 3.3 18:26:36 10° SE 18:30:28 31° ENE 18:34:21 10° N
Cosmos 2297 4.4 18:25:41 10° N 18:30:41 31° ENE 18:34:10 17° ESE
Cosmos 1867 4.4 18:26:53 10° SW 18:32:06 49° WNW 18:37:22 10° NNE
SL-16 R/B 2.3 18:26:49 10° SSW 18:32:29 82° WNW 18:38:10 10° NNE
CZ-2C R/B 3.5 18:27:48 10° SE 18:32:32 35° ENE 18:37:03 10° N
Cosmos 1515 Rocket 4.1 18:28:35 10° SSE 18:32:33 35° E 18:34:01 27° NE
Cosmos 1943 Rocket 3.8 18:29:44 10° NNE 18:31:41 16° NE 18:31:41 16° NE
COSMO-SKYMED 1 2.8 18:32:03 10° N 18:36:22 69° WNW 18:40:40 10° SSW
Meteor 1-26 Rocket 4.3 18:31:55 10° S 18:37:49 71° E 18:43:49 10° NNE
SL-23 DEB 4.1 18:35:06 10° WSW 18:38:30 66° NW 18:41:11 24° NE
PSLV R/B 3.8 18:37:03 10° NNE 18:41:07 88° W 18:45:09 10° SSW
Cosmos 1782 2.7 18:37:48 10° S 18:41:39 57° E 18:43:16 31° NNE
Okean O Rocket 3.6 18:37:51 10° SSW 18:41:39 30° W 18:45:29 10° NW
Cosmos 1538 Rocket 4.3 18:36:46 10° S 18:41:48 44° ESE 18:43:58 29° NE
Helios 1A Rocket 4.0 18:38:05 10° SE 18:43:48 23° NNE 18:45:36 10° N
Orbus 7S 4.0 18:39:01 10° WSW 18:42:12 32° S 18:42:58 27° SSE
Sich 1 4.0 18:41:35 10° NNW 18:45:48 48° W 18:49:58 10° SSW
Cosmos 1818 3.9 18:40:27 10° NNW 18:45:53 69° WSW 18:51:16 10° SSE
Cosmos 2218 Rocket 3.8 18:41:37 10° N 18:47:45 71° E 18:53:51 10° SSE
ATLAS 3B CENTAUR R/B 1.8 18:46:23 10° WSW 18:47:54 27° SSW 18:47:54 27° SSW
Cosmos 1151 Rocket 3.8 18:50:40 10° SSW 18:54:51 51° W 18:59:02 10° N
CZ-4B R/B 4.3 18:54:00 10° NW 18:55:24 13° WNW 18:56:49 10° W
Cosmos 2366 rocket 3.8 18:52:32 10° N 18:58:44 84° E 19:04:52 10° S
Cosmos 1328 Rocket 4.3 18:56:48 10° SSW 19:00:58 50° W 19:05:11 10° N
IRS-1C Rocket 4.3 18:56:55 10° S 19:02:10 72° WSW 19:07:27 10° NNW
Meteor 1-20 Rocket 4.4 18:56:43 10° N 19:02:35 79° W 19:08:23 10° S
Lacrosse 5 rocket 2.8 18:59:39 10° WSW 19:02:47 26° NW 19:03:47 23° NNW
Cosmos 1666 Rocket 4.4 18:58:52 10° NNW 19:03:08 51° W 19:07:25 10° SSW
CZ-2D R/B 3.8 19:02:47 10° S 19:06:31 57° W 19:10:16 10° NNW
Cosmos 2278 Rocket 4.3 19:02:40 10° NW 19:07:21 27° WSW 19:12:02 10° SSW
Meteor 1-4 Rocket 3.3 19:05:54 10° SSW 19:09:29 51° W 19:10:12 43° NW
USA 267 3.6 19:09:07 42° NE 19:09:46 43° NE 19:15:50 10° NNW
CZ-4 R/B 3.2 19:06:37 10° S 19:14:25 10° NNW 19:07:50 20° S
OAO 1 4.5 19:08:22 10° W 19:13:53 69° N 19:14:29 63° NE
CZ-3A R/B 3.7 19:12:55 10° SW 19:14:28 17° SSW 19:14:28 17° SSW
X-37B 3.2 19:22:01 10° WSW 19:23:18 22° WSW 19:23:18 22° WSW
ATLAS CENTAUR R/B 3.8 19:09:21 10° NW 19:26:05 55° NE 19:27:28 51° ENE
Cosmos 1603 3.7 19:21:31 10° S 19:26:23 63° SSE 19:26:23 63° SSE
H-2A R/B 3.4 19:24:49 10° SSE 19:33:04 28° N 19:35:30 10° NNW
Nadezhda 3 Rocket 4.0 19:31:42 10° S 19:38:01 82° W 19:39:56 49° N
Cosmos 1943 3.7 19:32:28 10° SSW 19:36:27 48° S 19:36:27 48° S
Cosmos 2285 Rocket 4.3 19:32:37 10° NNW 19:38:56 67° WSW 19:45:11 10° S
USA 281 3.6 19:37:21 10° S 19:43:47 60° WSW 19:50:16 10° NNW
Cosmos 1943 Rocket 4.4 20:12:07 10° NNW 20:13:17 16° NW 20:13:17 16° NW
